Time,TemperatureF,DewpointF,PressureIn,WindDirection,WindDirectionDegrees,WindSpeedMPH,WindSpeedGustMPH,Humidity,HourlyPrecipIn,Conditions,Clouds,dailyrainin,SolarRadiationWatts/m^2,SoftwareType,DateUTC
2013-03-20 00:12:00,34.0,15.0,-100.00,WSW,241,6.0,14.0,46,0.00,,,0.00,0.000000,,2013-03-20 04:12:00,
2013-03-20 00:23:00,34.0,15.0,-100.00,WSW,241,6.0,14.0,46,0.00,,,0.00,0.000000,,2013-03-20 04:23:00,
2013-03-20 00:32:00,34.0,15.0,-100.00,WSW,241,6.0,14.0,46,0.00,,,0.00,0.000000,,2013-03-20 04:32:00,
2013-03-20 00:43:00,34.0,15.0,-100.00,WSW,241,6.0,14.0,46,0.00,,,0.00,0.000000,,2013-03-20 04:43:00,
2013-03-20 01:13:00,32.0,16.0,-100.00,SW,233,4.0,11.0,51,0.00,,,0.00,0.000000,,2013-03-20 05:13:00,
2013-03-20 01:23:00,32.0,16.0,-100.00,SW,233,4.0,11.0,51,0.00,,,0.00,0.000000,,2013-03-20 05:23:00,
2013-03-20 01:32:00,32.0,16.0,-100.00,SW,233,4.0,11.0,51,0.00,,,0.00,0.000000,,2013-03-20 05:32:00,
2013-03-20 01:42:00,32.0,16.0,-100.00,SW,233,4.0,11.0,51,0.00,,,0.00,0.000000,,2013-03-20 05:42:00,
2013-03-20 02:13:00,30.0,15.0,-100.00,WSW,243,5.0,9.0,54,0.00,,,0.00,0.000000,,2013-03-20 06:13:00,
2013-03-20 02:22:00,30.0,15.0,-100.00,WSW,243,5.0,9.0,54,0.00,,,0.00,0.000000,,2013-03-20 06:22:00,
2013-03-20 02:32:00,30.0,15.0,-100.00,WSW,243,5.0,9.0,54,0.00,,,0.00,0.000000,,2013-03-20 06:32:00,
2013-03-20 02:43:00,30.0,15.0,-100.00,WSW,243,5.0,9.0,54,0.00,,,0.00,0.000000,,2013-03-20 06:43:00,
2013-03-20 03:12:00,30.0,16.0,-100.00,WSW,245,6.0,9.0,56,0.00,,,0.00,0.000000,,2013-03-20 07:12:00,
2013-03-20 03:22:00,30.0,16.0,-100.00,WSW,245,6.0,9.0,56,0.00,,,0.00,0.000000,,2013-03-20 07:22:00,
2013-03-20 03:32:00,30.0,16.0,-100.00,WSW,245,6.0,9.0,56,0.00,,,0.00,0.000000,,2013-03-20 07:32:00,
2013-03-20 03:42:00,30.0,16.0,-100.00,WSW,245,6.0,9.0,56,0.00,,,0.00,0.000000,,2013-03-20 07:42:00,
2013-03-20 04:13:00,29.0,16.0,-100.00,WSW,249,5.0,9.0,58,0.00,,,0.00,0.000000,,2013-03-20 08:13:00,
2013-03-20 04:22:00,29.0,16.0,-100.00,WSW,249,5.0,9.0,58,0.00,,,0.00,0.000000,,2013-03-20 08:22:00,
2013-03-20 04:32:00,29.0,16.0,-100.00,WSW,249,5.0,9.0,58,0.00,,,0.00,0.000000,,2013-03-20 08:32:00,
2013-03-20 04:42:00,29.0,16.0,-100.00,WSW,249,5.0,9.0,58,0.00,,,0.00,0.000000,,2013-03-20 08:42:00,
2013-03-20 05:12:00,27.0,18.0,-100.00,WSW,239,4.0,7.0,67,0.00,,,0.00,0.000000,,2013-03-20 09:12:00,
2013-03-20 05:22:00,27.0,18.0,-100.00,WSW,239,4.0,7.0,67,0.00,,,0.00,0.000000,,2013-03-20 09:22:00,
2013-03-20 05:33:00,27.0,18.0,-100.00,WSW,239,4.0,7.0,67,0.00,,,0.00,0.000000,,2013-03-20 09:33:00,
2013-03-20 05:43:00,27.0,18.0,-100.00,WSW,239,4.0,7.0,67,0.00,,,0.00,0.000000,,2013-03-20 09:43:00,
2013-03-20 06:13:00,27.0,17.0,-100.00,WSW,240,4.0,9.0,66,0.00,,,0.00,0.000000,,2013-03-20 10:13:00,
2013-03-20 06:23:00,27.0,17.0,-100.00,WSW,240,4.0,9.0,66,0.00,,,0.00,0.000000,,2013-03-20 10:23:00,
2013-03-20 06:33:00,27.0,17.0,-100.00,WSW,240,4.0,9.0,66,0.00,,,0.00,0.000000,,2013-03-20 10:33:00,
2013-03-20 06:43:00,27.0,17.0,-100.00,WSW,240,4.0,9.0,66,0.00,,,0.00,0.000000,,2013-03-20 10:43:00,
2013-03-20 07:12:00,28.0,17.0,-100.00,SW,236,6.0,14.0,62,0.00,,,0.00,0.000000,,2013-03-20 11:12:00,
2013-03-20 07:22:00,28.0,17.0,-100.00,SW,236,6.0,14.0,62,0.00,,,0.00,0.000000,,2013-03-20 11:22:00,
2013-03-20 07:32:00,28.0,17.0,-100.00,SW,236,6.0,14.0,62,0.00,,,0.00,0.000000,,2013-03-20 11:32:00,
2013-03-20 07:42:00,28.0,17.0,-100.00,SW,236,6.0,14.0,62,0.00,,,0.00,0.000000,,2013-03-20 11:42:00,
2013-03-20 08:13:00,28.0,17.0,-100.00,WSW,237,6.0,9.0,62,0.00,,,0.00,1.000000,,2013-03-20 12:13:00,
2013-03-20 08:22:00,28.0,17.0,-100.00,WSW,237,6.0,9.0,62,0.00,,,0.00,1.000000,,2013-03-20 12:22:00,
2013-03-20 08:33:00,28.0,17.0,-100.00,WSW,237,6.0,9.0,62,0.00,,,0.00,1.000000,,2013-03-20 12:33:00,
2013-03-20 08:42:00,28.0,17.0,-100.00,WSW,237,6.0,9.0,62,0.00,,,0.00,1.000000,,2013-03-20 12:42:00,
2013-03-20 09:12:00,32.0,19.0,-100.00,West,272,6.0,11.0,58,0.00,,,0.00,79.000000,,2013-03-20 13:12:00,
2013-03-20 09:22:00,32.0,19.0,-100.00,West,272,6.0,11.0,58,0.00,,,0.00,79.000000,,2013-03-20 13:22:00,
2013-03-20 09:32:00,32.0,19.0,-100.00,West,272,6.0,11.0,58,0.00,,,0.00,79.000000,,2013-03-20 13:32:00,
2013-03-20 09:42:00,32.0,19.0,-100.00,West,272,6.0,11.0,58,0.00,,,0.00,79.000000,,2013-03-20 13:42:00,
2013-03-20 10:12:00,33.0,16.0,-100.00,West,276,10.0,17.0,50,0.00,,,0.00,301.000000,,2013-03-20 14:12:00,
2013-03-20 10:23:00,33.0,16.0,-100.00,West,276,10.0,17.0,50,0.00,,,0.00,301.000000,,2013-03-20 14:23:00,
2013-03-20 10:34:00,33.0,16.0,-100.00,West,276,10.0,17.0,50,0.00,,,0.00,301.000000,,2013-03-20 14:34:00,
2013-03-20 10:42:00,33.0,16.0,-100.00,West,276,10.0,17.0,50,0.00,,,0.00,301.000000,,2013-03-20 14:42:00,
2013-03-20 11:13:00,34.0,15.0,-100.00,WNW,302,12.0,18.0,46,0.00,,,0.00,540.000000,,2013-03-20 15:13:00,
2013-03-20 11:22:00,34.0,15.0,-100.00,WNW,302,12.0,18.0,46,0.00,,,0.00,540.000000,,2013-03-20 15:22:00,
2013-03-20 11:33:00,34.0,15.0,-100.00,WNW,302,12.0,18.0,46,0.00,,,0.00,540.000000,,2013-03-20 15:33:00,
2013-03-20 11:43:00,34.0,15.0,-100.00,WNW,302,12.0,18.0,46,0.00,,,0.00,540.000000,,2013-03-20 15:43:00,
2013-03-20 12:13:00,35.0,15.0,-100.00,WSW,253,14.0,24.0,44,0.00,,,0.00,687.000000,,2013-03-20 16:13:00,
2013-03-20 12:23:00,35.0,15.0,-100.00,WSW,253,14.0,24.0,44,0.00,,,0.00,687.000000,,2013-03-20 16:23:00,
2013-03-20 12:33:00,35.0,15.0,-100.00,WSW,253,14.0,24.0,44,0.00,,,0.00,687.000000,,2013-03-20 16:33:00,
2013-03-20 12:43:00,35.0,15.0,-100.00,WSW,253,14.0,24.0,44,0.00,,,0.00,687.000000,,2013-03-20 16:43:00,
2013-03-20 13:12:00,36.0,13.0,-100.00,West,265,13.0,22.0,39,0.00,,,0.00,760.000000,,2013-03-20 17:12:00,
2013-03-20 13:22:00,36.0,13.0,-100.00,West,265,13.0,22.0,39,0.00,,,0.00,760.000000,,2013-03-20 17:22:00,
2013-03-20 13:32:00,36.0,13.0,-100.00,West,265,13.0,22.0,39,0.00,,,0.00,760.000000,,2013-03-20 17:32:00,
2013-03-20 13:42:00,36.0,13.0,-100.00,West,265,13.0,22.0,39,0.00,,,0.00,760.000000,,2013-03-20 17:42:00,
2013-03-20 14:12:00,35.0,12.0,-100.00,SW,233,15.0,26.0,38,0.00,,,0.00,898.000000,,2013-03-20 18:12:00,
2013-03-20 14:22:00,35.0,12.0,-100.00,SW,233,15.0,26.0,38,0.00,,,0.00,898.000000,,2013-03-20 18:22:00,
2013-03-20 14:34:00,35.0,12.0,-100.00,SW,233,15.0,26.0,38,0.00,,,0.00,898.000000,,2013-03-20 18:34:00,
2013-03-20 14:43:00,35.0,12.0,-100.00,SW,233,15.0,26.0,38,0.00,,,0.00,898.000000,,2013-03-20 18:43:00,
2013-03-20 15:12:00,35.0,12.0,-100.00,WSW,256,13.0,26.0,38,0.00,,,0.00,505.000000,,2013-03-20 19:12:00,
2013-03-20 15:23:00,35.0,12.0,-100.00,WSW,256,13.0,26.0,38,0.00,,,0.00,505.000000,,2013-03-20 19:23:00,
2013-03-20 15:32:00,35.0,12.0,-100.00,WSW,256,13.0,26.0,38,0.00,,,0.00,505.000000,,2013-03-20 19:32:00,
2013-03-20 15:42:00,35.0,12.0,-100.00,WSW,256,13.0,26.0,38,0.00,,,0.00,505.000000,,2013-03-20 19:42:00,
2013-03-20 16:13:00,34.0,10.0,-100.00,WSW,248,14.0,24.0,36,0.00,,,0.00,410.000000,,2013-03-20 20:13:00,
2013-03-20 16:22:00,34.0,10.0,-100.00,WSW,248,14.0,24.0,36,0.00,,,0.00,410.000000,,2013-03-20 20:22:00,
2013-03-20 16:32:00,34.0,10.0,-100.00,WSW,248,14.0,24.0,36,0.00,,,0.00,410.000000,,2013-03-20 20:32:00,
2013-03-20 16:42:00,34.0,10.0,-100.00,WSW,248,14.0,24.0,36,0.00,,,0.00,410.000000,,2013-03-20 20:42:00,
2013-03-20 17:12:00,35.0,7.0,-100.00,WSW,237,17.0,25.0,31,0.00,,,0.00,497.000000,,2013-03-20 21:12:00,
2013-03-20 17:23:00,35.0,7.0,-100.00,WSW,237,17.0,25.0,31,0.00,,,0.00,497.000000,,2013-03-20 21:23:00,
2013-03-20 17:33:00,35.0,7.0,-100.00,WSW,237,17.0,25.0,31,0.00,,,0.00,497.000000,,2013-03-20 21:33:00,
2013-03-20 17:42:00,35.0,7.0,-100.00,WSW,237,17.0,25.0,31,0.00,,,0.00,497.000000,,2013-03-20 21:42:00,
2013-03-20 18:13:00,32.0,6.0,-100.00,West,261,12.0,24.0,32,0.00,,,0.00,383.000000,,2013-03-20 22:13:00,
2013-03-20 18:23:00,32.0,6.0,-100.00,West,261,12.0,24.0,32,0.00,,,0.00,383.000000,,2013-03-20 22:23:00,
2013-03-20 18:33:00,32.0,6.0,-100.00,West,261,12.0,24.0,32,0.00,,,0.00,383.000000,,2013-03-20 22:33:00,
2013-03-20 18:42:00,32.0,6.0,-100.00,West,261,12.0,24.0,32,0.00,,,0.00,383.000000,,2013-03-20 22:42:00,
2013-03-20 19:12:00,30.0,8.0,-100.00,West,261,14.0,25.0,38,0.00,,,0.00,145.000000,,2013-03-20 23:12:00,
2013-03-20 19:23:00,30.0,8.0,-100.00,West,261,14.0,25.0,38,0.00,,,0.00,145.000000,,2013-03-20 23:23:00,
2013-03-20 19:32:00,30.0,8.0,-100.00,West,261,14.0,25.0,38,0.00,,,0.00,145.000000,,2013-03-20 23:32:00,
2013-03-20 19:42:00,30.0,8.0,-100.00,West,261,14.0,25.0,38,0.00,,,0.00,145.000000,,2013-03-20 23:42:00,
2013-03-20 20:13:00,27.0,8.0,-100.00,West,268,13.0,25.0,43,0.00,,,0.00,65.000000,,2013-03-21 00:13:00,
2013-03-20 20:23:00,27.0,8.0,-100.00,West,268,13.0,25.0,43,0.00,,,0.00,65.000000,,2013-03-21 00:23:00,
2013-03-20 20:33:00,27.0,8.0,-100.00,West,268,13.0,25.0,43,0.00,,,0.00,65.000000,,2013-03-21 00:33:00,
2013-03-20 20:42:00,27.0,8.0,-100.00,West,268,13.0,25.0,43,0.00,,,0.00,65.000000,,2013-03-21 00:42:00,
2013-03-20 21:12:00,25.0,6.0,-100.00,West,270,9.0,21.0,44,0.00,,,0.00,1.000000,,2013-03-21 01:12:00,
2013-03-20 21:22:00,25.0,6.0,-100.00,West,270,9.0,21.0,44,0.00,,,0.00,1.000000,,2013-03-21 01:22:00,
2013-03-20 21:33:00,25.0,6.0,-100.00,West,270,9.0,21.0,44,0.00,,,0.00,1.000000,,2013-03-21 01:33:00,
2013-03-20 21:42:00,25.0,6.0,-100.00,West,270,9.0,21.0,44,0.00,,,0.00,1.000000,,2013-03-21 01:42:00,
2013-03-20 22:13:00,25.0,6.0,-100.00,West,280,6.0,13.0,44,0.00,,,0.00,0.000000,,2013-03-21 02:13:00,
2013-03-20 22:23:00,25.0,6.0,-100.00,West,280,6.0,13.0,44,0.00,,,0.00,0.000000,,2013-03-21 02:23:00,
2013-03-20 22:33:00,25.0,6.0,-100.00,West,280,6.0,13.0,44,0.00,,,0.00,0.000000,,2013-03-21 02:33:00,
2013-03-20 22:42:00,25.0,6.0,-100.00,West,280,6.0,13.0,44,0.00,,,0.00,0.000000,,2013-03-21 02:42:00,
2013-03-20 23:12:00,23.0,7.0,-100.00,West,273,5.0,11.0,49,0.00,,,0.00,0.000000,,2013-03-21 03:12:00,
2013-03-20 23:22:00,23.0,7.0,-100.00,West,273,5.0,11.0,49,0.00,,,0.00,0.000000,,2013-03-21 03:22:00,
2013-03-20 23:33:00,23.0,7.0,-100.00,West,273,5.0,11.0,49,0.00,,,0.00,0.000000,,2013-03-21 03:33:00,
2013-03-20 23:43:00,23.0,7.0,-100.00,West,273,5.0,11.0,49,0.00,,,0.00,0.000000,,2013-03-21 03:43:00,